Regional Weather Roundup
Issued by NWS Green Bay, WI

Home | Current Version | Previous Version | Graphics & Text | Print | Product List | Glossary Off
Versions: 1 2 3 4 5 6 7 8 9 10 11 12 13 14 15 16 17 18 19 20 21 22 23 24 25 26 27 28 29 30 31 32 33 34 35 36 37 38 39 40 41 42 43 44 45 46 47 48 49 50

000
ASUS43 KGRB 212210
RWRGRB

NORTH-CENTRAL AND NORTHEAST WISCONSIN REGIONAL WEATHER ROUNDUP
NATIONAL WEATHER SERVICE GREEN BAY WI
500 PM CDT SUN SEP 21 2014

WIZ005-009-010>012-018-019-212300-
NORTH CENTRAL WISCONSIN

CITY           SKY/WX    TMP DP  RH WIND       PRES   REMARKS
IRONWOOD       SUNNY     54  39  58 N9        30.10S
MANITOWISH WTR SUNNY     51  37  57 N9G16     30.12R
ARBOR VITAE    SUNNY     52  37  56 N13G21    30.11R
EAGLE RIVER    MOSUNNY   50  35  55 NW13G23   30.10R
LAND O LAKES   MOSUNNY   50  37  59 N12G18    30.11R
RHINELANDER    SUNNY     52  38  58 N8G20     30.10R
PHILLIPS       SUNNY     54  39  58 N7        30.12R
ANTIGO         SUNNY     54  42  65 N12G21    30.07R
TOMAHAWK       SUNNY     53  39  58 NW12G17   30.11R
MERRILL        SUNNY     56  41  57 N10G17    30.09R
$$

WIZ013-073-212300-
NORTHEAST WISCONSIN

CITY           SKY/WX    TMP DP  RH WIND       PRES   REMARKS
IRON MOUNTAIN  SUNNY     52  37  56 N15       30.05R
MARINETTE      MOSUNNY   55  39  54 N15G21    30.03R
OCONTO         PTSUNNY   55  40  56 NW9G17    30.04R
$$

WIZ017-030-035>037-045-212300-
CENTRAL WISCONSIN

CITY           SKY/WX    TMP DP  RH WIND       PRES   REMARKS
MEDFORD        MOSUNNY   56  42  61 N16       30.10R
WAUSAU         MOSUNNY   58  40  51 N14G20    30.07R
MOSINEE        MOSUNNY   57  43  58 NW16      30.08R
MARSHFIELD     SUNNY     61  44  53 N15       30.08R
WISC RAPIDS    SUNNY     62  42  47 N16       30.08R
STEVENS POINT  SUNNY     58  41  53 N10       30.07R
WAUPACA        SUNNY     61  42  48 NW12G18   30.05R
SHAWANO        SUNNY     59  41  51 NW10G17   30.05R
CLINTONVILLE   SUNNY     59  39  47 N9        30.05R
$$

WIZ038-039-048-051-212300-
FOX VALLEY

CITY           SKY/WX    TMP DP  RH WIND       PRES   REMARKS
NWS GREEN BAY  MOSUNNY   58  42  55 N15       30.04R
APPLETON       MOSUNNY   57  39  51 NW13      30.04R
OSHKOSH        MOSUNNY   60  43  53 NW13G22   30.03R
FOND DU LAC    MOSUNNY   59  42  53 N14G22    30.03R
$$

WIZ022-050-052-212300-
EAST CENTRAL WISCONSIN

CITY           SKY/WX    TMP DP  RH WIND       PRES   REMARKS
STURGEON BAY   MOSUNNY   54  39  58 N18       30.03R
MANITOWOC      CLOUDY    57  46  66 N14G20    30.02R
SHEBOYGAN      MOSUNNY   58  42  55 NW13G21   30.02R
$$

LMZ563-521-522-541>543-212300-
LAKESHORE

STATION/POSITION TIME  TEMP    WIND        PRES    VSBY  WAVE
                       AIR SEA DIR/SP/G                  HT/PER
                 (UTC) (F)     (DEG/KT/KT) (MB)    (MI)  (FT/S)
SHEBOYGAN LKSHOR 2200   57 52  330/ 17/ 20 1016.7R
KEWAUNEE LKSHORE 2200   56     320/ 10/ 15 1015.3R
TWO RIVERS CG    2100   56                 1015.8      6   2
NORTHPORT PIER   2200   50     320/ 23/ 26 1016.9R
N MID LAKE BUOY  2200   48 57  340/ 25/ 33 1015.7R         6/ 6
S GREEN BAY BUOY 2200   56     VRB 17/ 21  1018.1R
STURGEON BAY CG  2100   56 57  360/  9     1015.1      6   3
CHAMBERS ISLAND  2200   53     340/ 17/ 21 1016.9R
MENOMINEE LKSHOR 2200   54     330/ 19/ 22 1017.2R
$$


USA.gov is the U.S. government's official web portal to all federal, state and local government web resources and services.